Dewpoint
60 54 52 52 52 55 52 52 51 52 53 50 51 52 53 56 59 59 57 57 61 58 55 53 53 54 56 59 63 64 64 66 66 66 66 66 65 66 66 66 68 68 68 67
52 52 49 53 53 53 53 51 50 51 52 51 53 50 54 58 58 58 57 58 59 60 60 57 54 54 55 57 62 64 64 66 66 66 65 65 65 65 65 66 67 68 68 67
48 49 53 53 52 51 51 50 49 47 52 52 51 47 49 57 58 57 56 57 57 58 58 59 53 53 55 56 61 62 63 65 66 66 66 65 65 64 64 64 65 66 68 68
51 52 51 51 50 51 48 51 50 50 49 46 48 41 46 52 55 57 57 57 57 57 59 60 59 51 53 55 58 61 63 66 67 66 66 64 63 62 62 62 64 67 69 69
47 50 45 44 45 51 48 42 50 48 44 42 47 42 38 52 52 54 55 56 57 57 58 59 60 56 53 55 57 60 63 66 64 66 65 65 63 63 64 65 65 67 70 71
51 51 46 44 46 48 43 40 39 43 42 38 41 39 34 45 48 47 47 49 51 55 59 59 59 61 59 57 58 62 61 64 64 66 65 64 63 63 64 68 69 70 70 71
42 44 44 46 43 37 34 32 29 31 33 31 39 36 36 41 46 45 46 49 52 56 58 59 60 61 62 59 59 61 62 61 66 67 65 65 65 64 64 66 69 70 69 69
39 36 42 44 41 35 34 29 27 29 27 26 38 37 37 41 46 45 47 48 53 55 56 58 60 62 62 63 62 62 60 60 66 66 66 66 65 66 66 66 68 70 68 68
43 38 43 37 41 36 30 26 32 26 31 22 28 34 40 40 41 41 44 53 55 57 58 59 61 62 64 65 66 65 64 64 65 66 66 67 66 66 66 65 67 67 67 67
44 37 35 19 29 27 27 30 27 19 18 21 24 28 35 36 37 36 39 52 54 58 60 61 63 63 65 66 66 67 66 65 66 67 66 67 67 66 66 66 66 67 66 67
35 35 20 19 19 19 27 27 20 19 20 16 18 20 27 35 36 33 43 52 55 58 61 62 63 65 66 67 66 66 67 67 67 65 67 68 67 66 65 66 66 66 65 65
45 23 21 18 21 21 27 27 21 22 20 19 19 19 32 34 32 39 50 55 58 62 63 64 65 66 66 66 66 66 66 66 67 68 69 68 66 66 66 65 66 66 65 65
25 18 20 18 10 17 21 24 27 22 23 19 18 22 41 45 45 49 55 58 60 61 62 63 64 65 65 65 64 64 64 65 65 64 68 69 68 66 65 64 64 64 64 64
34 17 20 18 13 19 21 27 27 26 25 26 23 23 40 46 50 56 58 59 59 60 61 62 62 63 64 64 64 63 63 63 63 64 64 67 69 67 65 62 62 64 65 64
25 26 19 20 19 23 25 29 30 30 27 25 25 24 29 46 52 56 58 59 59 60 61 61 61 62 63 63 63 62 61 62 62 62 64 67 69 68 67 65 64 64 64 63
31 27 29 30 31 33 31 30 30 28 28 27 28 29 39 48 49 50 54 57 58 60 61 61 61 62 64 63 63 62 61 61 62 64 64 67 67 67 66 65 65 64 64 64
28 28 28 26 28 29 26 27 25 27 30 30 34 36 44 45 47 46 49 50 52 57 60 62 62 63 63 64 64 62 61 61 61 64 64 66 66 66 66 65 65 65 64 65
29 28 30 28 33 27 27 28 28 28 33 34 35 38 45 47 47 53 53 52 52 55 60 61 62 62 64 64 63 62 61 61 62 63 64 64 65 65 65 65 65 65 65 65
30 29 29 28 27 29 30 31 32 32 33 40 41 46 48 53 52 51 53 52 51 51 52 54 56 59 63 64 63 62 61 60 61 61 62 63 64 64 64 63 63 63 64 64
37 34 32 33 32 28 33 35 37 35 33 44 46 47 50 48 47 49 51 54 52 47 48 52 58 62 63 63 63 62 61 59 60 60 60 61 63 63 63 63 63 63 63 63
33 33 32 33 32 34 37 42 41 34 34 46 47 47 47 47 46 44 47 52 48 47 49 57 62 63 64 63 63 62 60 60 61 61 61 61 61 61 61 63 63 63 63 63
34 34 35 35 35 33 40 44 38 40 45 47 46 45 45 44 44 46 48 48 46 52 54 57 62 63 63 63 63 62 61 62 62 61 61 61 61 62 62 61 61 61 61 62
35 34 34 34 37 37 42 46 45 47 45 46 45 45 45 43 44 45 45 47 49 50 53 58 62 63 63 63 64 62 62 62 62 61 61 60 60 60 60 60 59 60 60 61
41 37 32 31 32 36 40 40 43 44 43 44 45 44 45 44 46 46 48 48 50 50 54 58 63 62 63 64 64 64 62 62 62 61 60 59 59 59 59 59 59 60 59 60
36 34 31 32 34 34 35 39 43 43 44 43 43 44 44 46 45 46 47 49 51 51 53 61 62 63 63 63 63 64 63 62 62 61 61 60 60 59 59 59 60 59 59 58
35 31 33 34 35 33 35 40 44 43 44 44 44 44 45 45 45 46 48 50 51 52 56 61 62 62 62 61 61 63 63 63 62 61 61 61 61 60 60 59 58 56 55 52
Lifted_Index
-1 -1 -1 -2 -2 -2 -2 -2 -2 -1 -1 -1 -2 -1 -1 -1 -1 -1 -1 -2 -2 -2 -2 -1 0 1 1 1 1 0 -0 -0 -0 -1 -1 -1 -1 -1 -1 -1 -1 -1 -1 -2
-1 -1 -1 -2 -2 -2 -2 -2 -1 -1 -1 -1 -1 -1 -1 -1 -1 -1 -1 -1 -2 -2 -2 -1 -0 1 1 1 1 0 -0 -0 -1 -1 -1 -1 -1 -1 -1 -1 -1 -2 -2 -2
-1 -1 -2 -2 -2 -2 -2 -2 -1 -1 -1 -1 -1 -0 -0 -1 -1 -1 -1 -1 -1 -1 -1 -1 -1 -0 0 1 1 1 0 -0 -1 -1 -1 -1 -1 -1 -1 -1 -2 -2 -2 -2
-1 -1 -2 -2 -1 -1 -1 -1 -1 -1 -1 -1 -0 0 0 -0 -1 -1 -0 -0 -0 -0 -0 -1 -1 -0 -0 0 0 1 1 1 0 -0 -0 -0 -0 -1 -1 -1 -2 -2 -2 -2
-1 -1 -2 -2 -1 -1 -1 -0 -1 -1 -1 0 0 0 1 0 0 -0 -0 -0 -0 -0 -0 -1 -1 -1 -1 -0 -0 0 1 1 1 1 0 -0 -0 -0 -0 -1 -2 -2 -3 -3
-2 -1 -2 -2 -2 -1 -1 -0 -0 -0 -0 0 0 1 1 1 1 1 0 -0 -1 -1 -1 -1 -1 -1 -1 -1 -0 -0 -0 -0 0 1 0 -0 -0 -0 0 -1 -2 -3 -3 -4
-1 -1 -1 -2 -1 -1 -0 -0 -0 -0 -0 0 0 0 1 1 2 2 1 1 -0 -1 -1 -1 -1 -1 -1 -0 -0 -0 -1 -1 -0 0 -0 -0 -1 -1 -0 -1 -2 -3 -4 -4
-1 -1 -0 -1 -1 -1 -0 0 0 -0 -0 -0 0 0 1 1 2 2 3 2 1 -0 -1 -1 -1 -1 -1 -0 -0 -1 -1 -1 -1 0 0 -1 -1 -1 -1 -1 -2 -3 -4 -4
-0 0 0 0 -0 -0 0 0 0 -0 -0 -0 -0 0 1 2 2 3 3 2 1 -0 -0 -1 -1 -1 -1 -1 -1 -1 -1 -1 -0 -0 0 -1 -1 -2 -1 -1 -2 -3 -3 -3
0 1 1 1 1 0 0 0 0 0 -0 -0 0 1 1 2 3 3 4 2 1 -0 -0 -1 -1 -1 -1 -1 -1 -1 -1 -1 -1 -1 -1 -1 -2 -2 -2 -2 -3 -3 -2 -2
1 1 1 1 1 1 0 0 0 1 1 0 1 1 2 2 3 4 4 2 0 -1 -1 -1 -1 -1 -1 -1 -1 -1 -1 -1 -1 -1 -2 -2 -2 -3 -3 -3 -4 -3 -2 -1
2 2 1 1 2 1 1 1 1 1 1 1 1 2 2 3 3 3 3 1 -0 -1 -2 -2 -2 -2 -2 -2 -2 -2 -2 -1 -1 -1 -2 -2 -3 -3 -4 -4 -4 -2 -1 -1
3 2 2 1 1 1 1 1 1 2 2 2 2 2 3 3 3 2 1 -0 -1 -2 -3 -2 -2 -2 -2 -2 -2 -2 -1 -1 0 0 -1 -2 -3 -4 -4 -5 -3 -1 0 0
3 3 2 2 2 2 2 2 2 2 2 2 2 3 3 3 2 1 -0 -1 -2 -3 -3 -2 -2 -2 -2 -2 -2 -1 -0 0 1 1 0 -1 -2 -3 -4 -4 -3 -1 0 0
3 3 3 3 3 3 2 2 2 2 2 3 3 4 4 3 2 0 -1 -2 -3 -3 -3 -3 -2 -2 -2 -2 -1 -1 0 1 2 2 1 -1 -2 -3 -3 -3 -2 -1 -1 -1
3 3 3 3 3 3 3 3 3 3 3 3 4 4 3 2 1 0 -1 -1 -2 -3 -3 -3 -3 -3 -2 -2 -1 -1 0 1 2 2 1 -1 -2 -3 -2 -2 -1 -1 -2 -2
3 3 3 3 3 3 3 3 4 4 4 4 4 4 3 2 1 1 0 -1 -1 -2 -3 -4 -3 -3 -2 -2 -2 -1 -0 1 2 2 1 -1 -2 -2 -2 -1 -1 -1 -2 -2
3 3 3 3 3 3 3 3 4 4 4 4 4 3 2 1 1 0 -0 -1 -1 -2 -3 -3 -2 -2 -2 -2 -2 -1 -0 1 2 2 1 -0 -1 -1 -1 -1 -1 -1 -1 -1
4 4 3 3 2 2 3 3 3 3 3 3 3 3 2 1 0 -0 -1 -1 -1 -1 -1 -1 -1 -1 -2 -2 -2 -2 -1 0 1 2 2 1 0 -1 -1 -1 -1 -1 -1 -1
4 3 3 3 2 2 3 3 3 3 3 3 2 2 2 1 0 -0 -1 -1 -0 -0 -0 -0 -1 -1 -2 -2 -2 -2 -1 -0 1 2 2 2 1 0 -0 -1 -1 -1 -1 -1
3 3 3 3 3 3 3 3 2 2 2 2 2 2 1 1 0 -0 -0 -0 -0 -0 -0 -1 -1 -2 -2 -3 -3 -3 -2 -1 0 1 2 2 1 1 0 0 0 -0 -0 -0
3 3 3 3 3 3 3 3 2 2 2 2 2 1 1 0 -0 -0 -0 -0 -0 -0 -0 -1 -2 -3 -3 -4 -4 -3 -2 -1 -0 1 1 1 1 1 1 1 1 0 1 1
4 4 4 4 4 4 4 4 3 3 2 2 1 1 0 0 -0 -0 -0 -1 -0 -0 -1 -1 -3 -3 -4 -4 -4 -4 -3 -2 -1 -0 0 1 1 1 1 1 0 1 1 1
4 4 5 5 6 6 6 5 4 3 3 2 1 1 0 0 0 -0 -1 -1 -1 -1 -1 -2 -3 -4 -5 -5 -5 -4 -3 -3 -2 -1 -1 -0 0 1 1 0 0 0 0 1
6 6 6 6 6 6 6 5 5 4 3 2 2 1 1 1 0 -0 -1 -1 -1 -1 -1 -2 -3 -4 -5 -5 -5 -4 -4 -3 -2 -2 -1 -1 -0 0 0 0 0 0 0 0
7 7 7 6 6 6 6 5 4 3 3 2 2 1 1 1 0 -1 -1 -1 -1 -1 -1 -2 -3 -4 -5 -5 -5 -4 -4 -3 -3 -2 -2 -1 -0 -0 0 0 0 0 0 0